| time (UTC) | temp F | wind direction | speed MPH | gust MPH | rain 1hr in | rain 24hr in | rain mn in | humidity % | barometer mb |
| 20260510075504 | 61 | 20 | 0.0 | 1.0 | 0.00 | 0.00 | 0.00 | 91 | 1031.8 |
| 20260510075000 | 61 | 180 | 0.0 | 0.0 | 0.00 | 0.00 | 0.00 | 91 | 1031.9 |
| 20260510074458 | 61 | 180 | 0.0 | 0.0 | 0.00 | 0.00 | 0.00 | 91 | 1031.9 |
| 20260510073953 | 61 | 180 | 0.0 | 0.0 | 0.00 | 0.00 | 0.00 | 91 | 1031.9 |
| 20260510073449 | 61 | 174 | 1.0 | 1.0 | 0.00 | 0.00 | 0.00 | 90 | 1032.2 |
| 20260510072946 | 61 | 8 | 0.0 | 0.0 | 0.00 | 0.00 | 0.00 | 90 | 1031.8 |
| 20260510072443 | 61 | 8 | 0.0 | 1.0 | 0.00 | 0.00 | 0.00 | 90 | 1031.7 |
| 20260510071938 | 62 | 99 | 0.0 | 0.0 | 0.00 | 0.00 | 0.00 | 90 | 1031.7 |
| 20260510071435 | 62 | 99 | 0.0 | 1.0 | 0.00 | 0.00 | 0.00 | 90 | 1031.8 |
| 20260510070933 | 61 | 23 | 0.0 | 0.0 | 0.00 | 0.00 | 0.00 | 90 | 1031.6 |
| 20260510070430 | 62 | 23 | 0.0 | 1.0 | 0.00 | 0.00 | 0.00 | 90 | 1031.8 |
| 20260510065926 | 62 | 90 | 0.0 | 0.0 | 0.00 | 0.00 | 0.00 | 89 | 1031.6 |
| 20260510065422 | 62 | 90 | 0.0 | 0.0 | 0.00 | 0.00 | 0.00 | 88 | 1031.9 |
| 20260510064918 | 63 | 90 | 0.0 | 0.0 | 0.00 | 0.00 | 0.00 | 87 | 1031.6 |
| 20260510064417 | 63 | 90 | 0.0 | 0.0 | 0.00 | 0.00 | 0.00 | 86 | 1031.5 |
| 20260510063913 | 63 | 90 | 0.0 | 0.0 | 0.00 | 0.00 | 0.00 | 86 | 1031.7 |
| 20260510063409 | 64 | 352 | 0.0 | 0.0 | 0.00 | 0.00 | 0.00 | 86 | 1031.6 |
| 20260510062907 | 64 | 90 | 0.0 | 0.0 | 0.00 | 0.00 | 0.00 | 85 | 1031.7 |
| 20260510062402 | 64 | 90 | 0.0 | 0.0 | 0.00 | 0.00 | 0.00 | 85 | 1031.6 |
| 20260510061858 | 64 | 0 | 0.0 | 3.0 | 0.00 | 0.00 | 0.00 | 85 | 1031.7 |
| 20260510061354 | 64 | 0 | 0.0 | 2.0 | 0.00 | 0.00 | 0.00 | 85 | 1031.6 |
| 20260510060850 | 64 | 81 | 0.0 | 0.0 | 0.00 | 0.00 | 0.00 | 84 | 1031.8 |
| 20260510060347 | 65 | 36 | 2.0 | 2.0 | 0.00 | 0.00 | 0.00 | 84 | 1031.8 |
| 20260510055843 | 64 | 20 | 1.0 | 4.0 | 0.00 | 0.00 | 0.00 | 84 | 1032.2 |
| 20260510055343 | 64 | 28 | 0.0 | 3.0 | 0.00 | 0.00 | 0.00 | 85 | 1031.9 |
| 20260510054836 | 64 | 0 | 1.0 | 3.0 | 0.00 | 0.00 | 0.00 | 85 | 1032.2 |
| 20260510054332 | 64 | 53 | 0.0 | 2.0 | 0.00 | 0.00 | 0.00 | 86 | 1032.3 |
| 20260510053827 | 64 | 0 | 2.0 | 4.0 | 0.00 | 0.00 | 0.00 | 86 | 1032.3 |
| 20260510053323 | 64 | 20 | 0.0 | 2.0 | 0.00 | 0.00 | 0.00 | 86 | 1031.9 |
| 20260510052820 | 64 | 7 | 1.0 | 2.0 | 0.00 | 0.00 | 0.00 | 86 | 1032.1 |
| 20260510052316 | 64 | 29 | 1.0 | 2.0 | 0.00 | 0.00 | 0.00 | 86 | 1032.3 |
| 20260510051812 | 64 | 75 | 0.0 | 2.0 | 0.00 | 0.00 | 0.00 | 87 | 1031.9 |
| 20260510051309 | 64 | 8 | 0.0 | 2.0 | 0.00 | 0.00 | 0.00 | 87 | 1032.1 |
| 20260510050805 | 64 | 11 | 0.0 | 2.0 | 0.00 | 0.00 | 0.00 | 87 | 1032.3 |
| 20260510050257 | 64 | 0 | 0.0 | 0.0 | 0.00 | 0.00 | 0.00 | 87 | 1031.9 |
| 20260510045754 | 64 | 7 | 0.0 | 3.0 | 0.00 | 0.00 | 0.00 | 86 | 1031.9 |
| 20260510045250 | 64 | 40 | 0.0 | 2.0 | 0.00 | 0.00 | 0.00 | 86 | 1032.2 |
| 20260510044748 | 64 | 60 | 0.0 | 3.0 | 0.00 | 0.00 | 0.00 | 85 | 1032.3 |
| 20260510044245 | 64 | 66 | 1.0 | 2.0 | 0.00 | 0.00 | 0.00 | 85 | 1032.1 |
| 20260510043740 | 65 | 66 | 0.0 | 4.0 | 0.00 | 0.00 | 0.00 | 85 | 1032.2 |
| 20260510043237 | 65 | 54 | 0.0 | 3.0 | 0.00 | 0.00 | 0.00 | 84 | 1032.2 |
| 20260510042734 | 65 | 90 | 1.0 | 2.0 | 0.00 | 0.00 | 0.00 | 84 | 1031.9 |
| 20260510042230 | 65 | 32 | 2.0 | 4.0 | 0.00 | 0.00 | 0.00 | 84 | 1032.2 |
| 20260510041727 | 65 | 90 | 0.0 | 4.0 | 0.00 | 0.00 | 0.00 | 84 | 1031.8 |
| 20260510041224 | 65 | 166 | 0.0 | 3.0 | 0.00 | 0.00 | 0.00 | 84 | 1031.7 |
| 20260510040721 | 65 | 90 | 0.0 | 3.0 | 0.00 | 0.00 | 0.00 | 84 | 1031.9 |
| 20260510040218 | 65 | 16 | 0.0 | 3.0 | 0.00 | 0.00 | 0.00 | 84 | 1031.7 |
| 20260510035713 | 65 | 90 | 2.0 | 3.0 | 0.00 | 0.00 | 0.00 | 83 | 1031.7 |
| 20260510035210 | 65 | 49 | 0.0 | 4.0 | 0.00 | 0.00 | 0.00 | 83 | 1031.7 |
| 20260510034705 | 65 | 32 | 2.0 | 5.0 | 0.00 | 0.00 | 0.00 | 83 | 1031.8 |
| 20260510034203 | 65 | 0 | 0.0 | 3.0 | 0.00 | 0.00 | 0.00 | 83 | 1031.8 |
| 20260510033659 | 65 | 41 | 2.0 | 4.0 | 0.00 | 0.00 | 0.00 | 83 | 1031.9 |
| 20260510033157 | 65 | 23 | 0.0 | 4.0 | 0.00 | 0.00 | 0.00 | 83 | 1031.7 |
| 20260510032653 | 66 | 29 | 3.0 | 4.0 | 0.00 | 0.00 | 0.00 | 83 | 1031.7 |
| 20260510032149 | 65 | 79 | 2.0 | 6.0 | 0.00 | 0.00 | 0.00 | 83 | 1031.5 |
| 20260510031643 | 65 | 56 | 4.0 | 6.0 | 0.00 | 0.00 | 0.00 | 84 | 1031.4 |
| 20260510031140 | 65 | 19 | 3.0 | 4.0 | 0.00 | 0.00 | 0.00 | 84 | 1031.7 |
| 20260510030635 | 65 | 14 | 2.0 | 4.0 | 0.00 | 0.00 | 0.00 | 84 | 1031.7 |
| 20260510030133 | 65 | 12 | 2.0 | 4.0 | 0.00 | 0.00 | 0.00 | 83 | 1031.6 |
| 20260510025630 | 65 | 3 | 2.0 | 5.0 | 0.00 | 0.00 | 0.00 | 83 | 1031.5 |
| 20260510025127 | 66 | 54 | 3.0 | 6.0 | 0.00 | 0.00 | 0.00 | 82 | 1031.5 |
| 20260510024623 | 66 | 41 | 2.0 | 5.0 | 0.00 | 0.00 | 0.00 | 82 | 1031.4 |
| 20260510024120 | 66 | 0 | 1.0 | 5.0 | 0.00 | 0.00 | 0.00 | 81 | 1031.4 |
| 20260510023616 | 66 | 27 | 3.0 | 5.0 | 0.00 | 0.00 | 0.00 | 81 | 1031.5 |
| 20260510023114 | 66 | 43 | 4.0 | 8.0 | 0.00 | 0.00 | 0.00 | 80 | 1031.6 |
| 20260510022614 | 66 | 31 | 3.0 | 5.0 | 0.00 | 0.00 | 0.00 | 80 | 1031.4 |
| 20260510022108 | 66 | 69 | 1.0 | 6.0 | 0.00 | 0.00 | 0.00 | 79 | 1031.4 |
| 20260510021604 | 66 | 29 | 3.0 | 5.0 | 0.00 | 0.00 | 0.00 | 79 | 1031.3 |
| 20260510021102 | 66 | 47 | 3.0 | 5.0 | 0.00 | 0.00 | 0.00 | 79 | 1031.4 |
| 20260510020556 | 67 | 47 | 3.0 | 6.0 | 0.00 | 0.00 | 0.00 | 78 | 1031.3 |
| 20260510020052 | 67 | 36 | 3.0 | 10.0 | 0.00 | 0.00 | 0.00 | 77 | 1031.1 |
| 20260510015548 | 67 | 26 | 3.0 | 10.0 | 0.00 | 0.00 | 0.00 | 75 | 1031.1 |
| 20260510015044 | 68 | 29 | 5.0 | 5.0 | 0.00 | 0.00 | 0.00 | 73 | 1031.0 |
| 20260510014540 | 68 | 22 | 4.0 | 8.0 | 0.00 | 0.00 | 0.00 | 71 | 1030.8 |
| 20260510014038 | 69 | 66 | 0.0 | 8.0 | 0.00 | 0.00 | 0.00 | 69 | 1030.8 |
| 20260510013532 | 68 | 11 | 2.0 | 3.0 | 0.00 | 0.00 | 0.00 | 69 | 1030.6 |
| 20260510013028 | 68 | 29 | 0.0 | 2.0 | 0.00 | 0.00 | 0.00 | 70 | 1030.4 |
| 20260510012522 | 68 | 0 | 2.0 | 2.0 | 0.00 | 0.00 | 0.00 | 70 | 1030.3 |
| 20260510012019 | 68 | 0 | 1.0 | 2.0 | 0.00 | 0.00 | 0.00 | 70 | 1030.2 |
| 20260510011519 | 68 | 0 | 1.0 | 2.0 | 0.00 | 0.00 | 0.00 | 70 | 1030.3 |
| 20260510011014 | 68 | 0 | 2.0 | 2.0 | 0.00 | 0.00 | 0.00 | 70 | 1030.1 |
| 20260510010512 | 68 | 0 | 2.0 | 2.0 | 0.00 | 0.00 | 0.00 | 71 | 1030.0 |
| 20260510010009 | 69 | 0 | 2.0 | 2.0 | 0.00 | 0.00 | 0.00 | 70 | 1030.1 |
| 20260510005504 | 69 | 0 | 2.0 | 2.0 | 0.00 | 0.00 | 0.00 | 67 | 1029.7 |
| 20260510005002 | 70 | 23 | 4.0 | 4.0 | 0.00 | 0.00 | 0.00 | 65 | 1029.7 |
| 20260510004459 | 69 | 41 | 2.0 | 4.0 | 0.00 | 0.00 | 0.00 | 66 | 1029.6 |
| 20260510003957 | 69 | 24 | 2.0 | 3.0 | 0.00 | 0.00 | 0.00 | 69 | 1029.8 |
| 20260510003454 | 69 | 12 | 2.0 | 3.0 | 0.00 | 0.00 | 0.00 | 69 | 1029.8 |
| 20260510002949 | 69 | 24 | 2.0 | 3.0 | 0.00 | 0.00 | 0.00 | 69 | 1029.4 |
| 20260510002445 | 70 | 22 | 3.0 | 4.0 | 0.00 | 0.00 | 0.00 | 68 | 1029.7 |
| 20260510001941 | 70 | 19 | 2.0 | 4.0 | 0.00 | 0.00 | 0.00 | 67 | 1029.6 |
| 20260510001439 | 69 | 22 | 3.0 | 3.0 | 0.00 | 0.00 | 0.00 | 69 | 1029.6 |
| 20260510000937 | 70 | 24 | 2.0 | 2.0 | 0.00 | 0.00 | 0.00 | 69 | 1029.7 |
| 20260510000433 | 70 | 28 | 2.0 | 4.0 | 0.00 | 0.00 | 0.00 | 70 | 1029.4 |
| 20260509235929 | 70 | 23 | 2.0 | 3.0 | 0.00 | 0.00 | 0.00 | 71 | 1029.5 |
| 20260509235426 | 70 | 15 | 2.0 | 3.0 | 0.00 | 0.00 | 0.00 | 72 | 1029.0 |
| 20260509234922 | 70 | 3 | 2.0 | 4.0 | 0.00 | 0.00 | 0.00 | 71 | 1029.1 |
| 20260509234419 | 71 | 14 | 0.0 | 3.0 | 0.00 | 0.00 | 0.00 | 64 | 1029.2 |
| 20260509233917 | 72 | 109 | 0.0 | 2.0 | 0.00 | 0.00 | 0.00 | 60 | 1028.9 |
| 20260509233415 | 72 | 124 | 2.0 | 3.0 | 0.00 | 0.00 | 0.00 | 60 | 1028.7 |
| 20260509232910 | 72 | 8 | 0.0 | 3.0 | 0.00 | 0.00 | 0.00 | 60 | 1029.2 |
| 20260509232409 | 72 | 45 | 0.0 | 2.0 | 0.00 | 0.00 | 0.00 | 61 | 1029.0 |
| 20260509231904 | 72 | 120 | 0.0 | 3.0 | 0.00 | 0.00 | 0.00 | 61 | 1028.8 |
| 20260509231401 | 73 | 48 | 0.0 | 2.0 | 0.00 | 0.00 | 0.00 | 61 | 1028.9 |
| 20260509230859 | 73 | 173 | 0.0 | 3.0 | 0.00 | 0.00 | 0.00 | 60 | 1028.8 |
| 20260509230355 | 73 | 37 | 0.0 | 3.0 | 0.00 | 0.00 | 0.00 | 59 | 1028.9 |
| 20260509225851 | 74 | 46 | 4.0 | 4.0 | 0.00 | 0.00 | 0.00 | 61 | 1028.9 |
| 20260509225348 | 74 | 0 | 1.0 | 2.0 | 0.00 | 0.00 | 0.00 | 56 | 1029.1 |
| 20260509224844 | 75 | 33 | 2.0 | 3.0 | 0.00 | 0.00 | 0.00 | 56 | 1029.0 |
| 20260509224340 | 75 | 102 | 0.0 | 3.0 | 0.00 | 0.00 | 0.00 | 56 | 1028.8 |
| 20260509223837 | 74 | 0 | 1.0 | 4.0 | 0.00 | 0.00 | 0.00 | 57 | 1028.7 |
| 20260509223334 | 73 | 49 | 3.0 | 3.0 | 0.00 | 0.00 | 0.00 | 58 | 1028.9 |
| 20260509222831 | 73 | 21 | 4.0 | 6.0 | 0.00 | 0.00 | 0.00 | 59 | 1028.8 |
| 20260509222326 | 74 | 21 | 2.0 | 2.0 | 0.00 | 0.00 | 0.00 | 61 | 1029.0 |
| 20260509221821 | 74 | 353 | 1.0 | 2.0 | 0.00 | 0.00 | 0.00 | 62 | 1028.9 |
| 20260509221320 | 74 | 30 | 2.0 | 3.0 | 0.00 | 0.00 | 0.00 | 60 | 1029.0 |
| 20260509220819 | 73 | 26 | 3.0 | 4.0 | 0.00 | 0.00 | 0.00 | 62 | 1029.0 |
| 20260509220316 | 73 | 30 | 2.0 | 7.0 | 0.00 | 0.00 | 0.00 | 60 | 1028.9 |
| 20260509215811 | 73 | 20 | 4.0 | 4.0 | 0.00 | 0.00 | 0.00 | 58 | 1028.9 |
| 20260509215309 | 74 | 45 | 0.0 | 2.0 | 0.00 | 0.00 | 0.00 | 59 | 1028.8 |
| 20260509214805 | 74 | 19 | 4.0 | 4.0 | 0.00 | 0.00 | 0.00 | 58 | 1029.0 |
| 20260509214302 | 76 | 74 | 0.0 | 1.0 | 0.00 | 0.00 | 0.00 | 57 | 1029.1 |
| 20260509213759 | 75 | 0 | 1.0 | 3.0 | 0.00 | 0.00 | 0.00 | 59 | 1028.9 |
| 20260509213255 | 75 | 7 | 0.0 | 4.0 | 0.00 | 0.00 | 0.00 | 59 | 1028.9 |
| 20260509212753 | 73 | 37 | 2.0 | 3.0 | 0.00 | 0.00 | 0.00 | 61 | 1029.0 |
| 20260509212250 | 73 | 151 | 2.0 | 2.0 | 0.00 | 0.00 | 0.00 | 59 | 1028.7 |
| 20260509211745 | 74 | 147 | 0.0 | 2.0 | 0.00 | 0.00 | 0.00 | 58 | 1028.4 |
| 20260509211242 | 75 | 203 | 0.0 | 4.0 | 0.00 | 0.00 | 0.00 | 59 | 1028.6 |
| 20260509210738 | 77 | 166 | 2.0 | 3.0 | 0.00 | 0.00 | 0.00 | 55 | 1028.4 |
| 20260509210236 | 76 | 30 | 0.0 | 4.0 | 0.00 | 0.00 | 0.00 | 55 | 1028.5 |
| 20260509205735 | 77 | 7 | 2.0 | 4.0 | 0.00 | 0.00 | 0.00 | 55 | 1028.4 |
| 20260509205230 | 77 | 12 | 1.0 | 2.0 | 0.00 | 0.00 | 0.00 | 54 | 1028.3 |
| 20260509204726 | 75 | 347 | 3.0 | 5.0 | 0.00 | 0.00 | 0.00 | 57 | 1028.3 |
| 20260509204223 | 73 | 209 | 0.0 | 1.0 | 0.00 | 0.00 | 0.00 | 60 | 1028.7 |
| 20260509203719 | 74 | 139 | 2.0 | 3.0 | 0.00 | 0.00 | 0.00 | 58 | 1028.7 |
| 20260509203217 | 75 | 148 | 2.0 | 4.0 | 0.00 | 0.00 | 0.00 | 57 | 1028.9 |
| 20260509202713 | 73 | 144 | 3.0 | 3.0 | 0.00 | 0.00 | 0.00 | 60 | 1029.0 |
| 20260509202208 | 73 | 180 | 0.0 | 2.0 | 0.00 | 0.00 | 0.00 | 59 | 1028.7 |
| 20260509201703 | 74 | 161 | 2.0 | 3.0 | 0.00 | 0.00 | 0.00 | 57 | 1028.8 |
| 20260509201200 | 74 | 120 | 0.0 | 0.0 | 0.00 | 0.00 | 0.00 | 57 | 1028.8 |
| 20260509200656 | 73 | 185 | 0.0 | 3.0 | 0.00 | 0.00 | 0.00 | 60 | 1028.9 |
| 20260509200152 | 74 | 24 | 4.0 | 4.0 | 0.00 | 0.00 | 0.00 | 56 | 1029.0 |
| 20260509195647 | 78 | 146 | 2.0 | 3.0 | 0.00 | 0.00 | 0.00 | 56 | 1029.0 |
| 20260509195143 | 76 | 151 | 1.0 | 2.0 | 0.00 | 0.00 | 0.00 | 61 | 1028.8 |
| 20260509194637 | 76 | 138 | 3.0 | 4.0 | 0.00 | 0.00 | 0.00 | 58 | 1029.0 |
| 20260509194134 | 75 | 7 | 5.0 | 5.0 | 0.00 | 0.00 | 0.00 | 57 | 1029.1 |
| 20260509193630 | 73 | 145 | 1.0 | 5.0 | 0.00 | 0.00 | 0.00 | 58 | 1029.4 |
| 20260509193126 | 75 | 143 | 2.0 | 8.0 | 0.00 | 0.00 | 0.00 | 57 | 1029.1 |
| 20260509192623 | 77 | 133 | 3.0 | 5.0 | 0.00 | 0.00 | 0.00 | 57 | 1029.1 |
| 20260509192118 | 75 | 90 | 2.0 | 7.0 | 0.00 | 0.00 | 0.00 | 55 | 1028.9 |
| 20260509191612 | 74 | 106 | 0.0 | 3.0 | 0.00 | 0.00 | 0.00 | 62 | 1029.2 |
| 20260509191109 | 75 | 120 | 1.0 | 5.0 | 0.00 | 0.00 | 0.00 | 60 | 1029.5 |
| 20260509190606 | 75 | 159 | 2.0 | 3.0 | 0.00 | 0.00 | 0.00 | 58 | 1029.3 |
| 20260509190103 | 76 | 148 | 2.0 | 5.0 | 0.00 | 0.00 | 0.00 | 58 | 1029.2 |
| 20260509185601 | 73 | 6 | 3.0 | 5.0 | 0.00 | 0.00 | 0.00 | 61 | 1029.3 |
| 20260509185056 | 70 | 48 | 4.0 | 8.0 | 0.00 | 0.00 | 0.00 | 63 | 1029.3 |
| 20260509184555 | 71 | 166 | 1.0 | 6.0 | 0.00 | 0.00 | 0.00 | 63 | 1029.2 |
| 20260509184051 | 73 | 41 | 4.0 | 5.0 | 0.00 | 0.00 | 0.00 | 58 | 1029.2 |
| 20260509183546 | 73 | 135 | 0.0 | 3.0 | 0.00 | 0.00 | 0.00 | 64 | 1029.1 |
| 20260509183043 | 73 | 23 | 3.0 | 4.0 | 0.00 | 0.00 | 0.00 | 62 | 1029.0 |
| 20260509182539 | 72 | 135 | 0.0 | 4.0 | 0.00 | 0.00 | 0.00 | 61 | 1029.1 |
| 20260509182036 | 71 | 144 | 0.0 | 3.0 | 0.00 | 0.00 | 0.00 | 63 | 1028.8 |
| 20260509181535 | 71 | 322 | 2.0 | 5.0 | 0.00 | 0.00 | 0.00 | 60 | 1029.3 |
| 20260509181031 | 72 | 274 | 0.0 | 5.0 | 0.00 | 0.00 | 0.00 | 60 | 1029.3 |
| 20260509180527 | 72 | 168 | 3.0 | 5.0 | 0.00 | 0.00 | 0.00 | 63 | 1029.2 |
| 20260509180025 | 71 | 208 | 2.0 | 9.0 | 0.00 | 0.00 | 0.00 | 60 | 1029.0 |
| 20260509175520 | 71 | 68 | 2.0 | 10.0 | 0.00 | 0.00 | 0.00 | 62 | 1029.1 |
| 20260509175017 | 71 | 135 | 2.0 | 5.0 | 0.00 | 0.00 | 0.00 | 65 | 1029.2 |
| 20260509174514 | 71 | 180 | 0.0 | 4.0 | 0.00 | 0.00 | 0.00 | 62 | 1029.3 |
| 20260509174008 | 71 | 172 | 0.0 | 4.0 | 0.00 | 0.00 | 0.00 | 63 | 1029.1 |
| 20260509173503 | 71 | 40 | 3.0 | 4.0 | 0.00 | 0.00 | 0.00 | 65 | 1029.1 |
| 20260509173000 | 71 | 98 | 1.0 | 2.0 | 0.00 | 0.00 | 0.00 | 64 | 1029.0 |
| 20260509172457 | 71 | 112 | 3.0 | 6.0 | 0.00 | 0.00 | 0.00 | 64 | 1029.2 |
| 20260509171952 | 70 | 358 | 4.0 | 7.0 | 0.00 | 0.00 | 0.00 | 64 | 1029.7 |
| 20260509171449 | 70 | 168 | 1.0 | 5.0 | 0.00 | 0.00 | 0.00 | 66 | 1029.3 |
| 20260509170945 | 69 | 4 | 2.0 | 6.0 | 0.00 | 0.00 | 0.00 | 65 | 1029.5 |
| 20260509170441 | 70 | 15 | 2.0 | 3.0 | 0.00 | 0.00 | 0.00 | 68 | 1029.5 |
| 20260509165936 | 69 | 90 | 0.0 | 3.0 | 0.00 | 0.00 | 0.00 | 66 | 1029.6 |
| 20260509165430 | 69 | 20 | 4.0 | 5.0 | 0.00 | 0.00 | 0.00 | 67 | 1029.5 |
| 20260509164926 | 69 | 261 | 2.0 | 7.0 | 0.00 | 0.00 | 0.00 | 64 | 1029.7 |
| 20260509164422 | 68 | 350 | 4.0 | 9.0 | 0.00 | 0.00 | 0.00 | 66 | 1029.8 |
| 20260509163919 | 68 | 30 | 3.0 | 5.0 | 0.00 | 0.00 | 0.00 | 66 | 1029.6 |
| 20260509163416 | 68 | 346 | 5.0 | 9.0 | 0.00 | 0.00 | 0.00 | 67 | 1029.8 |
| 20260509162915 | 68 | 286 | 2.0 | 11.0 | 0.00 | 0.00 | 0.00 | 69 | 1030.2 |
| 20260509162414 | 68 | 0 | 5.0 | 6.0 | 0.00 | 0.00 | 0.00 | 70 | 1029.8 |
| 20260509161909 | 67 | 321 | 5.0 | 7.0 | 0.00 | 0.00 | 0.00 | 70 | 1030.2 |
| 20260509161406 | 67 | 0 | 0.0 | 8.0 | 0.00 | 0.00 | 0.00 | 70 | 1030.0 |
| 20260509160902 | 66 | 341 | 2.0 | 5.0 | 0.00 | 0.00 | 0.00 | 74 | 1030.0 |
| 20260509160357 | 66 | 19 | 5.0 | 8.0 | 0.00 | 0.00 | 0.00 | 75 | 1030.2 |
| 20260509155853 | 65 | 251 | 1.0 | 5.0 | 0.00 | 0.00 | 0.00 | 75 | 1030.1 |
| 20260509155350 | 65 | 161 | 2.0 | 4.0 | 0.00 | 0.00 | 0.00 | 74 | 1029.8 |
| 20260509154846 | 66 | 157 | 2.0 | 7.0 | 0.00 | 0.00 | 0.00 | 73 | 1029.8 |
| 20260509154343 | 65 | 39 | 8.0 | 11.0 | 0.00 | 0.00 | 0.00 | 74 | 1030.2 |
| 20260509153839 | 65 | 15 | 0.0 | 2.0 | 0.00 | 0.00 | 0.00 | 79 | 1029.7 |
| 20260509153337 | 64 | 26 | 4.0 | 5.0 | 0.00 | 0.00 | 0.00 | 77 | 1030.3 |
| 20260509152833 | 64 | 326 | 2.0 | 5.0 | 0.00 | 0.00 | 0.00 | 78 | 1030.2 |
| 20260509152329 | 64 | 180 | 2.0 | 10.0 | 0.00 | 0.00 | 0.00 | 78 | 1030.3 |
| 20260509151827 | 64 | 147 | 2.0 | 5.0 | 0.00 | 0.00 | 0.00 | 78 | 1030.2 |
| 20260509151322 | 63 | 157 | 0.0 | 4.0 | 0.00 | 0.00 | 0.00 | 78 | 1030.2 |
| 20260509150821 | 64 | 45 | 0.0 | 5.0 | 0.00 | 0.00 | 0.00 | 80 | 1030.0 |
| 20260509150318 | 64 | 75 | 3.0 | 3.0 | 0.00 | 0.00 | 0.00 | 81 | 1030.1 |
| 20260509145815 | 63 | 12 | 6.0 | 17.0 | 0.00 | 0.00 | 0.00 | 80 | 1029.7 |
| 20260509145316 | 63 | 78 | 2.0 | 5.0 | 0.00 | 0.00 | 0.00 | 80 | 1029.8 |
| 20260509144812 | 63 | 34 | 2.0 | 6.0 | 0.00 | 0.00 | 0.00 | 80 | 1029.7 |
| 20260509144309 | 62 | 150 | 3.0 | 6.0 | 0.00 | 0.00 | 0.00 | 83 | 1029.7 |
| 20260509143806 | 62 | 177 | 2.0 | 3.0 | 0.00 | 0.00 | 0.00 | 83 | 1029.6 |
| 20260509143304 | 62 | 148 | 2.0 | 3.0 | 0.00 | 0.00 | 0.00 | 84 | 1029.6 |
| 20260509142800 | 62 | 47 | 6.0 | 6.0 | 0.00 | 0.00 | 0.00 | 82 | 1029.2 |
| 20260509142256 | 62 | 53 | 0.0 | 3.0 | 0.00 | 0.00 | 0.00 | 83 | 1029.1 |
| 20260509141751 | 61 | 33 | 2.0 | 6.0 | 0.00 | 0.00 | 0.00 | 83 | 1029.2 |
| 20260509141249 | 60 | 38 | 2.0 | 4.0 | 0.00 | 0.00 | 0.00 | 83 | 1029.2 |
| 20260509140745 | 60 | 165 | 0.0 | 6.0 | 0.00 | 0.00 | 0.00 | 84 | 1029.5 |
| 20260509140242 | 60 | 349 | 2.0 | 2.0 | 0.00 | 0.00 | 0.00 | 86 | 1029.4 |
| 20260509135740 | 59 | 157 | 0.0 | 0.0 | 0.00 | 0.00 | 0.00 | 86 | 1029.4 |
| 20260509135238 | 59 | 157 | 0.0 | 2.0 | 0.00 | 0.00 | 0.00 | 86 | 1029.6 |
| 20260509134734 | 59 | 166 | 2.0 | 2.0 | 0.00 | 0.00 | 0.00 | 87 | 1029.6 |
| 20260509134232 | 58 | 188 | 0.0 | 3.0 | 0.00 | 0.00 | 0.00 | 88 | 1029.7 |
| 20260509133729 | 58 | 140 | 0.0 | 2.0 | 0.00 | 0.00 | 0.00 | 88 | 1029.6 |
| 20260509133225 | 57 | 106 | 1.0 | 4.0 | 0.00 | 0.00 | 0.00 | 88 | 1029.5 |
| 20260509132724 | 57 | 132 | 0.0 | 2.0 | 0.00 | 0.00 | 0.00 | 88 | 1029.5 |
| 20260509132223 | 57 | 172 | 0.0 | 0.0 | 0.00 | 0.00 | 0.00 | 88 | 1029.4 |
| 20260509131719 | 57 | 156 | 0.0 | 2.0 | 0.00 | 0.00 | 0.00 | 87 | 1029.4 |
| 20260509131215 | 57 | 29 | 0.0 | 3.0 | 0.00 | 0.00 | 0.00 | 87 | 1029.5 |
| 20260509130711 | 56 | 14 | 2.0 | 3.0 | 0.00 | 0.00 | 0.00 | 89 | 1029.7 |
| 20260509130207 | 56 | 14 | 2.0 | 3.0 | 0.00 | 0.00 | 0.00 | 90 | 1029.5 |
| 20260509125704 | 55 | 23 | 1.0 | 3.0 | 0.00 | 0.00 | 0.00 | 90 | 1029.7 |
| 20260509125201 | 55 | 6 | 1.0 | 2.0 | 0.00 | 0.00 | 0.00 | 91 | 1029.5 |
| 20260509124657 | 54 | 345 | 2.0 | 2.0 | 0.00 | 0.00 | 0.00 | 93 | 1029.6 |
| 20260509124154 | 53 | 7 | 1.0 | 2.0 | 0.00 | 0.00 | 0.00 | 94 | 1029.6 |
| 20260509123653 | 53 | 0 | 2.0 | 3.0 | 0.00 | 0.00 | 0.00 | 95 | 1030.2 |
| 20260509123149 | 52 | 0 | 1.0 | 2.0 | 0.00 | 0.00 | 0.00 | 95 | 1030.0 |
| 20260509122644 | 52 | 8 | 2.0 | 4.0 | 0.00 | 0.00 | 0.00 | 95 | 1030.0 |
| 20260509122142 | 52 | 8 | 2.0 | 3.0 | 0.00 | 0.00 | 0.00 | 95 | 1029.8 |
| 20260509121638 | 52 | 12 | 4.0 | 4.0 | 0.00 | 0.00 | 0.00 | 94 | 1029.6 |
| 20260509121136 | 52 | 151 | 0.0 | 0.0 | 0.00 | 0.00 | 0.00 | 94 | 1030.0 |
| 20260509120634 | 52 | 145 | 3.0 | 3.0 | 0.00 | 0.00 | 0.00 | 94 | 1029.7 |
| 20260509120132 | 52 | 159 | 2.0 | 2.0 | 0.00 | 0.00 | 0.00 | 93 | 1029.7 |
| 20260509115629 | 52 | 157 | 1.0 | 3.0 | 0.00 | 0.00 | 0.00 | 92 | 1029.5 |
| 20260509115127 | 53 | 135 | 2.0 | 2.0 | 0.00 | 0.00 | 0.00 | 92 | 1029.4 |
| 20260509114624 | 53 | 126 | 0.0 | 1.0 | 0.00 | 0.00 | 0.00 | 92 | 1029.2 |
| 20260509114123 | 53 | 117 | 0.0 | 2.0 | 0.00 | 0.00 | 0.00 | 92 | 1029.2 |
| 20260509113621 | 53 | 157 | 0.0 | 1.0 | 0.00 | 0.00 | 0.00 | 92 | 1029.1 |
| 20260509113118 | 52 | 0 | 0.0 | 0.0 | 0.00 | 0.00 | 0.00 | 92 | 1029.1 |
| 20260509112614 | 52 | 8 | 0.0 | 2.0 | 0.00 | 0.00 | 0.00 | 92 | 1029.4 |
| 20260509112112 | 51 | 346 | 0.0 | 3.0 | 0.00 | 0.00 | 0.00 | 93 | 1029.3 |
| 20260509111609 | 51 | 356 | 4.0 | 4.0 | 0.00 | 0.00 | 0.00 | 92 | 1029.3 |
| 20260509111106 | 52 | 350 | 2.0 | 3.0 | 0.00 | 0.00 | 0.00 | 93 | 1029.5 |
| 20260509110603 | 52 | 350 | 2.0 | 2.0 | 0.00 | 0.00 | 0.00 | 93 | 1029.5 |
| 20260509110100 | 52 | 11 | 1.0 | 2.0 | 0.00 | 0.00 | 0.00 | 93 | 1029.7 |
| 20260509105558 | 52 | 5 | 0.0 | 0.0 | 0.00 | 0.00 | 0.00 | 93 | 1029.5 |
| 20260509105055 | 51 | 5 | 0.0 | 2.0 | 0.00 | 0.00 | 0.00 | 93 | 1029.7 |
| 20260509104552 | 52 | 26 | 2.0 | 2.0 | 0.00 | 0.00 | 0.00 | 93 | 1029.8 |
| 20260509104049 | 52 | 114 | 0.0 | 0.0 | 0.00 | 0.00 | 0.00 | 92 | 1029.6 |
| 20260509103547 | 52 | 114 | 0.0 | 0.0 | 0.00 | 0.00 | 0.00 | 92 | 1029.6 |
| 20260509103045 | 52 | 8 | 0.0 | 0.0 | 0.00 | 0.00 | 0.00 | 92 | 1029.4 |
| 20260509102542 | 52 | 8 | 0.0 | 2.0 | 0.00 | 0.00 | 0.00 | 92 | 1029.4 |
| 20260509102039 | 52 | 12 | 1.0 | 2.0 | 0.00 | 0.00 | 0.00 | 93 | 1029.4 |
| 20260509101535 | 51 | 345 | 0.0 | 2.0 | 0.00 | 0.00 | 0.00 | 92 | 1029.7 |
| 20260509101032 | 52 | 14 | 1.0 | 1.0 | 0.00 | 0.00 | 0.00 | 91 | 1029.7 |
| 20260509100529 | 52 | 120 | 0.0 | 2.0 | 0.00 | 0.00 | 0.00 | 92 | 1029.8 |
| 20260509100027 | 52 | 66 | 0.0 | 0.0 | 0.00 | 0.00 | 0.00 | 92 | 1029.5 |
| 20260509095523 | 51 | 20 | 0.0 | 0.0 | 0.00 | 0.00 | 0.00 | 92 | 1029.3 |
| 20260509095021 | 51 | 35 | 0.0 | 2.0 | 0.00 | 0.00 | 0.00 | 93 | 1029.0 |
| 20260509094516 | 51 | 0 | 1.0 | 2.0 | 0.00 | 0.00 | 0.00 | 92 | 1029.0 |
| 20260509094014 | 52 | 0 | 0.0 | 3.0 | 0.00 | 0.00 | 0.00 | 90 | 1029.3 |
| 20260509093512 | 53 | 15 | 0.0 | 1.0 | 0.00 | 0.00 | 0.00 | 89 | 1029.3 |
| 20260509093009 | 53 | 166 | 0.0 | 2.0 | 0.00 | 0.00 | 0.00 | 89 | 1029.1 |
| 20260509092507 | 53 | 126 | 0.0 | 2.0 | 0.00 | 0.00 | 0.00 | 89 | 1029.1 |
| 20260509092006 | 53 | 7 | 1.0 | 1.0 | 0.00 | 0.00 | 0.00 | 89 | 1029.0 |
| 20260509091502 | 54 | 0 | 2.0 | 3.0 | 0.00 | 0.00 | 0.00 | 89 | 1029.0 |
| 20260509090959 | 53 | 65 | 2.0 | 3.0 | 0.00 | 0.00 | 0.00 | 90 | 1029.1 |
| 20260509090456 | 52 | 0 | 0.0 | 1.0 | 0.00 | 0.00 | 0.00 | 91 | 1029.0 |
| 20260509085954 | 52 | 15 | 0.0 | 2.0 | 0.00 | 0.00 | 0.00 | 90 | 1029.2 |
| 20260509085451 | 53 | 0 | 0.0 | 1.0 | 0.00 | 0.00 | 0.00 | 89 | 1029.0 |
| 20260509084947 | 53 | 0 | 0.0 | 2.0 | 0.00 | 0.00 | 0.00 | 90 | 1029.0 |
| 20260509084444 | 53 | 0 | 0.0 | 2.0 | 0.00 | 0.00 | 0.00 | 90 | 1029.0 |
| 20260509083941 | 53 | 5 | 2.0 | 2.0 | 0.00 | 0.00 | 0.00 | 89 | 1029.0 |
| 20260509083439 | 53 | 0 | 2.0 | 2.0 | 0.00 | 0.00 | 0.00 | 90 | 1028.9 |
| 20260509082935 | 53 | 14 | 2.0 | 3.0 | 0.00 | 0.00 | 0.00 | 89 | 1029.1 |
| 20260509082432 | 53 | 15 | 0.0 | 2.0 | 0.00 | 0.00 | 0.00 | 90 | 1029.1 |
| 20260509081929 | 53 | 12 | 2.0 | 2.0 | 0.00 | 0.00 | 0.00 | 88 | 1028.8 |
| 20260509081427 | 53 | 23 | 1.0 | 2.0 | 0.00 | 0.00 | 0.00 | 88 | 1029.0 |
| 20260509080924 | 53 | 15 | 0.0 | 1.0 | 0.00 | 0.00 | 0.00 | 89 | 1029.1 |
| 20260509080421 | 53 | 8 | 0.0 | 1.0 | 0.00 | 0.00 | 0.00 | 89 | 1029.0 |
| 20260509075920 | 53 | 6 | 0.0 | 1.0 | 0.00 | 0.00 | 0.00 | 89 | 1029.0 |